Location: Kermapucano
(48.0667°N, 3.3000°W)
Time: 20:32:15
(UTC+00:00)

MOS 1 Rocket - Pass Details

Date: 29 November 2020
Orbit: 613 x 831 km, 97.4° (Epoch: 27 January)

Event Time Altitude Azimuth Distance (km) Brightness Sun altitude
Rises 06:48:30 0° 194° (SSW) 3,065 6.7 -8.5°
Reaches altitude 10° 06:50:54 10° 205° (SSW) 2,188 5.9 -8.1°
Maximum altitude 06:55:11 31° 267° (W) 1,284 4.2 -7.4°
Drops below altitude 10° 06:59:44 10° 330° (NNW) 2,328 5.5 -6.7°
Sets 07:02:23 0° 340° (NNW) 3,294 6.3 -6.3°
